HB9ZRH-10 Weather Reports


time (UTC)temp
F
wind
direction
speed
knots
gust
knots
rain 1hr
in
rain 24hr
in
rain mn
in
humidity
%
barometer
mb
20260502214548 67 0.0 0.0 0.00 0.00 0.00 38 1018.2
20260502214048 68 0.0 0.0 0.00 0.00 0.00 38 1018.2
20260502213548 69 0.0 0.0 0.00 0.00 0.00 38 1018.2
20260502213048 70 0.0 0.0 0.00 0.00 0.00 38 1018.1
20260502212548 71 0.0 0.0 0.00 0.00 0.00 38 1018.1
20260502212048 73 0.0 0.0 0.00 0.00 0.00 37 1018.0
20260502211548 75 0.0 0.0 0.00 0.00 0.00 36 1018.0
20260502211048 79 0.0 0.0 0.00 0.00 0.00 35 1018.0
20260502210548 83 0.0 0.0 0.00 0.00 0.00 33 1018.0
20260502210048 79 0.0 0.0 0.00 0.00 0.00 34 1018.1
20260502205548 86 0.0 0.0 0.00 0.00 0.00 32 1018.0
20260502205048 87 0.0 0.0 0.00 0.00 0.00 32 1017.9
20260502204548 87 0.0 0.0 0.00 0.00 0.00 32 1017.9
20260502204048 87 0.0 0.0 0.00 0.00 0.00 32 1017.9
20260502203548 87 0.0 0.0 0.00 0.00 0.00 32 1018.0
20260502203048 87 0.0 0.0 0.00 0.00 0.00 32 1018.1
20260502202548 87 0.0 0.0 0.00 0.00 0.00 32 1018.1
20260502202048 86 0.0 0.0 0.00 0.00 0.00 32 1018.1
20260502201548 86 0.0 0.0 0.00 0.00 0.00 32 1018.1
20260502201048 87 0.0 0.0 0.00 0.00 0.00 32 1018.0
20260502200548 87 0.0 0.0 0.00 0.00 0.00 32 1018.0
20260502200048 87 0.0 0.0 0.00 0.00 0.00 32 1018.1
20260502195548 87 0.0 0.0 0.00 0.00 0.00 32 1018.2
20260502195048 87 0.0 0.0 0.00 0.00 0.00 32 1018.2
20260502194548 87 0.0 0.0 0.00 0.00 0.00 32 1018.1
20260502194048 87 0.0 0.0 0.00 0.00 0.00 32 1018.1
20260502193548 87 0.0 0.0 0.00 0.00 0.00 32 1018.1
20260502193048 86 0.0 0.0 0.00 0.00 0.00 32 1018.1
20260502192548 86 0.0 0.0 0.00 0.00 0.00 32 1018.1
20260502192048 86 0.0 0.0 0.00 0.00 0.00 32 1018.0
20260502191548 85 0.0 0.0 0.00 0.00 0.00 33 1018.1
20260502191048 84 0.0 0.0 0.00 0.00 0.00 33 1018.1
20260502190548 83 0.0 0.0 0.00 0.00 0.00 33 1018.1
20260502190048 83 0.0 0.0 0.00 0.00 0.00 33 1018.1
20260502185548 83 0.0 0.0 0.00 0.00 0.00 33 1018.1
20260502185048 85 0.0 0.0 0.00 0.00 0.00 32 1018.1
20260502184548 86 0.0 0.0 0.00 0.00 0.00 32 1018.1
20260502184048 86 0.0 0.0 0.00 0.00 0.00 32 1018.1
20260502183548 85 0.0 0.0 0.00 0.00 0.00 32 1018.0
20260502183048 85 0.0 0.0 0.00 0.00 0.00 32 1018.0
20260502182548 86 0.0 0.0 0.00 0.00 0.00 32 1017.9
20260502182048 87 0.0 0.0 0.00 0.00 0.00 32 1018.0
20260502181548 87 0.0 0.0 0.00 0.00 0.00 32 1017.9
20260502181048 88 0.0 0.0 0.00 0.00 0.00 32 1017.9
20260502180548 88 0.0 0.0 0.00 0.00 0.00 31 1017.8
20260502164048 89 0.0 0.0 0.00 0.00 0.00 32 1018.0
20260502163548 89 0.0 0.0 0.00 0.00 0.00 32 1018.1
20260502163048 90 0.0 0.0 0.00 0.00 0.00 31 1018.1
20260502162548 90 0.0 0.0 0.00 0.00 0.00 31 1018.1
20260502162048 90 0.0 0.0 0.00 0.00 0.00 31 1018.2
20260502161548 90 0.0 0.0 0.00 0.00 0.00 31 1018.3
20260502161048 89 0.0 0.0 0.00 0.00 0.00 32 1018.4
20260502160548 90 0.0 0.0 0.00 0.00 0.00 31 1018.5
20260502152048 87 0.0 0.0 0.00 0.00 0.00 32 1018.9
20260502151548 87 0.0 0.0 0.00 0.00 0.00 32 1018.9
20260502151048 87 0.0 0.0 0.00 0.00 0.00 32 1019.0
20260502150548 87 0.0 0.0 0.00 0.00 0.00 32 1019.0
20260502130548 88 0.0 0.0 0.00 0.00 0.00 31 1020.7
20260502123548 88 0.0 0.0 0.00 0.00 0.00 31 1021.0
20260502123048 87 0.0 0.0 0.00 0.00 0.00 31 1021.1
20260502122548 86 0.0 0.0 0.00 0.00 0.00 31 1021.1
20260502122048 87 0.0 0.0 0.00 0.00 0.00 31 1021.2
20260502121548 87 0.0 0.0 0.00 0.00 0.00 31 1021.2
20260502121048 86 0.0 0.0 0.00 0.00 0.00 31 1021.3
20260502120548 85 0.0 0.0 0.00 0.00 0.00 31 1021.4
20260502115548 84 0.0 0.0 0.00 0.00 0.00 32 1021.5
20260502115048 83 0.0 0.0 0.00 0.00 0.00 32 1021.6
20260502114548 82 0.0 0.0 0.00 0.00 0.00 32 1021.7
20260502114048 83 0.0 0.0 0.00 0.00 0.00 31 1021.8
20260502113548 83 0.0 0.0 0.00 0.00 0.00 31 1021.8
20260502113048 84 0.0 0.0 0.00 0.00 0.00 31 1021.9
20260502112548 83 0.0 0.0 0.00 0.00 0.00 31 1022.0
20260502112048 83 0.0 0.0 0.00 0.00 0.00 31 1022.1
20260502111548 83 0.0 0.0 0.00 0.00 0.00 31 1022.1
20260502111048 83 0.0 0.0 0.00 0.00 0.00 31 1022.2
20260502110548 83 0.0 0.0 0.00 0.00 0.00 31 1022.2
20260502110048 83 0.0 0.0 0.00 0.00 0.00 31 1022.4
20260502105548 82 0.0 0.0 0.00 0.00 0.00 31 1022.4
20260502105048 82 0.0 0.0 0.00 0.00 0.00 31 1022.5
20260502104548 82 0.0 0.0 0.00 0.00 0.00 31 1022.5
20260502104048 82 0.0 0.0 0.00 0.00 0.00 31 1022.6
20260502103548 81 0.0 0.0 0.00 0.00 0.00 31 1022.6
20260502103048 81 0.0 0.0 0.00 0.00 0.00 31 1022.6
20260502102548 82 0.0 0.0 0.00 0.00 0.00 31 1022.7
20260502102048 82 0.0 0.0 0.00 0.00 0.00 31 1022.8
20260502101548 81 0.0 0.0 0.00 0.00 0.00 31 1022.8
20260502101048 82 0.0 0.0 0.00 0.00 0.00 31 1022.9
20260502100548 81 0.0 0.0 0.00 0.00 0.00 32 1022.9
20260502091048 77 0.0 0.0 0.00 0.00 0.00 33 1023.5
20260502090548 74 0.0 0.0 0.00 0.00 0.00 34 1023.6
20260502071048 82 0.0 0.0 0.00 0.00 0.00 31 1023.5
20260502070548 82 0.0 0.0 0.00 0.00 0.00 31 1023.4
20260502070048 81 0.0 0.0 0.00 0.00 0.00 31 1023.4
20260502065548 81 0.0 0.0 0.00 0.00 0.00 31 1023.4
20260502065048 81 0.0 0.0 0.00 0.00 0.00 31 1023.4
20260502064548 81 0.0 0.0 0.00 0.00 0.00 31 1023.4
20260502064048 80 0.0 0.0 0.00 0.00 0.00 31 1023.4
20260502063548 80 0.0 0.0 0.00 0.00 0.00 31 1023.4
20260502063048 80 0.0 0.0 0.00 0.00 0.00 31 1023.4
20260502062548 81 0.0 0.0 0.00 0.00 0.00 31 1023.4
20260502062048 80 0.0 0.0 0.00 0.00 0.00 31 1023.4
20260502061548 79 0.0 0.0 0.00 0.00 0.00 32 1023.4
20260502061048 79 0.0 0.0 0.00 0.00 0.00 32 1023.4
20260502060548 78 0.0 0.0 0.00 0.00 0.00 32 1023.4
20260502060048 79 0.0 0.0 0.00 0.00 0.00 32 1023.3
20260502055548 80 0.0 0.0 0.00 0.00 0.00 31 1023.3
20260502055048 81 0.0 0.0 0.00 0.00 0.00 31 1023.2
20260502054548 81 0.0 0.0 0.00 0.00 0.00 31 1023.2
20260502054048 82 0.0 0.0 0.00 0.00 0.00 31 1023.2
20260502053548 82 0.0 0.0 0.00 0.00 0.00 31 1023.2
20260502053048 82 0.0 0.0 0.00 0.00 0.00 31 1023.2
20260502052016 83 0.0 0.0 0.00 0.00 0.00 31 1023.1
20260502051516 82 0.0 0.0 0.00 0.00 0.00 31 1023.2
20260502051016 81 0.0 0.0 0.00 0.00 0.00 31 1023.1
20260502050516 82 0.0 0.0 0.00 0.00 0.00 31 1023.1
20260502050016 82 0.0 0.0 0.00 0.00 0.00 31 1023.0
20260502045516 82 0.0 0.0 0.00 0.00 0.00 31 1023.1
20260502045016 82 0.0 0.0 0.00 0.00 0.00 31 1023.1
20260502044516 82 0.0 0.0 0.00 0.00 0.00 31 1023.0
20260502044016 82 0.0 0.0 0.00 0.00 0.00 31 1023.0
20260502043516 82 0.0 0.0 0.00 0.00 0.00 31 1023.0
20260502043016 82 0.0 0.0 0.00 0.00 0.00 31 1022.9
20260502042516 82 0.0 0.0 0.00 0.00 0.00 31 1023.0
20260502042016 82 0.0 0.0 0.00 0.00 0.00 31 1023.0
20260502041516 83 0.0 0.0 0.00 0.00 0.00 30 1023.0
20260502040949 83 0.0 0.0 0.00 0.00 0.00 31 1023.0
20260502040449 83 0.0 0.0 0.00 0.00 0.00 31 1022.9
20260502035949 83 0.0 0.0 0.00 0.00 0.00 30 1022.9
20260502035449 83 0.0 0.0 0.00 0.00 0.00 30 1022.9
20260502034949 83 0.0 0.0 0.00 0.00 0.00 30 1022.9
20260502034449 83 0.0 0.0 0.00 0.00 0.00 30 1022.9
20260502033949 83 0.0 0.0 0.00 0.00 0.00 30 1022.9
20260502033449 83 0.0 0.0 0.00 0.00 0.00 30 1022.9
20260502032949 83 0.0 0.0 0.00 0.00 0.00 30 1022.9
20260502032449 83 0.0 0.0 0.00 0.00 0.00 31 1023.0
20260502031949 83 0.0 0.0 0.00 0.00 0.00 31 1023.0
20260502031449 83 0.0 0.0 0.00 0.00 0.00 31 1022.9
20260502030949 83 0.0 0.0 0.00 0.00 0.00 31 1022.9
20260502030449 83 0.0 0.0 0.00 0.00 0.00 31 1023.0
20260502025949 83 0.0 0.0 0.00 0.00 0.00 31 1023.0
20260502025449 83 0.0 0.0 0.00 0.00 0.00 30 1023.0
20260502024949 84 0.0 0.0 0.00 0.00 0.00 30 1023.0
20260502024449 84 0.0 0.0 0.00 0.00 0.00 30 1023.0
20260502023949 84 0.0 0.0 0.00 0.00 0.00 30 1023.0
20260502023449 84 0.0 0.0 0.00 0.00 0.00 30 1023.0
20260502022949 84 0.0 0.0 0.00 0.00 0.00 30 1023.0
20260502022449 84 0.0 0.0 0.00 0.00 0.00 30 1023.0
20260502021949 84 0.0 0.0 0.00 0.00 0.00 30 1023.1
20260502021449 84 0.0 0.0 0.00 0.00 0.00 31 1023.1
20260502020949 84 0.0 0.0 0.00 0.00 0.00 30 1023.0
20260502020449 84 0.0 0.0 0.00 0.00 0.00 30 1023.0
20260502015949 84 0.0 0.0 0.00 0.00 0.00 31 1023.1
20260502015449 83 0.0 0.0 0.00 0.00 0.00 31 1023.1
20260502014949 83 0.0 0.0 0.00 0.00 0.00 31 1023.1
20260502014449 84 0.0 0.0 0.00 0.00 0.00 31 1023.1
20260502013949 84 0.0 0.0 0.00 0.00 0.00 31 1023.2
20260502013449 84 0.0 0.0 0.00 0.00 0.00 31 1023.2
20260502012949 84 0.0 0.0 0.00 0.00 0.00 31 1023.2
20260502012449 83 0.0 0.0 0.00 0.00 0.00 31 1023.2
20260502011949 83 0.0 0.0 0.00 0.00 0.00 31 1023.2
20260502011449 83 0.0 0.0 0.00 0.00 0.00 31 1023.2
20260502010949 82 0.0 0.0 0.00 0.00 0.00 31 1023.2
20260502010449 82 0.0 0.0 0.00 0.00 0.00 31 1023.3
20260502005949 83 0.0 0.0 0.00 0.00 0.00 31 1023.2
20260502005449 83 0.0 0.0 0.00 0.00 0.00 31 1023.2
20260502004949 83 0.0 0.0 0.00 0.00 0.00 31 1023.3
20260502004449 83 0.0 0.0 0.00 0.00 0.00 31 1023.3
20260502003949 83 0.0 0.0 0.00 0.00 0.00 31 1023.3
20260502003449 83 0.0 0.0 0.00 0.00 0.00 31 1023.3
20260502002949 83 0.0 0.0 0.00 0.00 0.00 31 1023.4
20260502002449 83 0.0 0.0 0.00 0.00 0.00 32 1023.4
20260502001949 82 0.0 0.0 0.00 0.00 0.00 32 1023.4
20260502001449 81 0.0 0.0 0.00 0.00 0.00 32 1023.4
20260502000949 80 0.0 0.0 0.00 0.00 0.00 33 1023.4
20260502000449 80 0.0 0.0 0.00 0.00 0.00 33 1023.4
20260501235949 80 0.0 0.0 0.00 0.00 0.00 33 1023.5
20260501235449 77 0.0 0.0 0.00 0.00 0.00 34 1023.5
20260501234949 74 0.0 0.0 0.00 0.00 0.00 35 1023.7
20260501234449 74 0.0 0.0 0.00 0.00 0.00 35 1023.7
20260501233949 74 0.0 0.0 0.00 0.00 0.00 35 1023.7
20260501233449 74 0.0 0.0 0.00 0.00 0.00 35 1023.7
20260501232949 73 0.0 0.0 0.00 0.00 0.00 35 1023.7
20260501232449 74 0.0 0.0 0.00 0.00 0.00 35 1023.7
20260501231949 77 0.0 0.0 0.00 0.00 0.00 33 1023.6
20260501231449 78 0.0 0.0 0.00 0.00 0.00 33 1023.6
20260501230949 75 0.0 0.0 0.00 0.00 0.00 34 1023.7
20260501230449 78 0.0 0.0 0.00 0.00 0.00 33 1023.6
20260501225949 74 0.0 0.0 0.00 0.00 0.00 35 1023.8
20260501225449 73 0.0 0.0 0.00 0.00 0.00 35 1023.8
20260501224949 71 0.0 0.0 0.00 0.00 0.00 35 1023.8
20260501224449 74 0.0 0.0 0.00 0.00 0.00 34 1023.8
20260501223949 77 0.0 0.0 0.00 0.00 0.00 33 1023.7
20260501223449 82 0.0 0.0 0.00 0.00 0.00 31 1023.7
20260501222949 83 0.0 0.0 0.00 0.00 0.00 31 1023.6
20260501222449 83 0.0 0.0 0.00 0.00 0.00 31 1023.6
20260501221949 84 0.0 0.0 0.00 0.00 0.00 31 1023.6
20260501221449 83 0.0 0.0 0.00 0.00 0.00 31 1023.6
20260501220949 83 0.0 0.0 0.00 0.00 0.00 31 1023.5
20260501220449 82 0.0 0.0 0.00 0.00 0.00 32 1023.6
20260501215949 82 0.0 0.0 0.00 0.00 0.00 32 1023.6
20260501215449 81 0.0 0.0 0.00 0.00 0.00 32 1023.6
20260501214949 81 0.0 0.0 0.00 0.00 0.00 32 1023.6